CAPE
47 56 21 6 2 21 31 12 1 5 0 0 0 0 0 0 0 0 435 568 760 1005 1135 1063 1033 815 648 463 306 199 107 128 184 213 196 141 90 56 35 5 10 39 77 135
10 59 46 4 1 0 10 6 12 0 0 0 0 0 0 0 0 0 0 552 764 900 891 822 804 589 381 47 0 0 3 68 93 100 117 121 125 89 12 23 76 100 204 98
10 49 56 7 5 1 0 0 1 0 0 0 0 0 0 0 0 0 0 587 730 1144 911 744 675 397 10 0 0 16 46 101 120 83 95 99 32 37 19 73 63 172 173 42
8 12 2 0 0 40 31 6 0 0 0 0 0 0 0 0 0 0 0 559 662 1086 1015 789 580 103 0 13 24 57 55 116 127 51 25 20 10 27 72 31 92 162 178 244
10 8 0 0 0 0 26 21 25 0 0 0 0 0 0 0 0 0 0 600 1203 1204 1053 707 427 0 3 29 52 82 99 139 67 31 21 27 19 47 84 35 87 113 170 310
5 6 4 46 123 103 39 0 1 0 0 0 0 0 0 0 4 0 220 951 1104 1016 944 758 223 0 21 52 119 94 128 81 46 29 8 18 32 37 54 101 62 88 179 251
1 3 1 7 8 7 5 42 43 19 23 0 0 0 0 0 178 395 723 1073 1214 965 858 644 127 16 56 136 115 312 120 73 75 62 26 23 34 51 23 59 46 126 156 208
1 1 1 4 0 6 3 11 5 12 3 4 3 0 0 0 0 533 766 1132 1219 875 696 573 97 1 62 186 315 54 38 62 110 120 78 32 48 66 66 86 111 209 167 113
0 0 1 3 2 1 0 5 0 0 0 0 24 0 0 0 126 579 853 1090 1172 701 619 398 13 1 147 265 149 140 60 88 189 164 61 152 248 327 322 312 158 198 130 85
0 0 1 2 6 1 2 0 0 0 0 5 77 69 34 153 340 672 1022 1161 835 464 260 22 0 39 180 269 152 203 124 191 433 357 266 293 315 320 446 413 255 166 149 80
15 12 3 4 0 3 3 1 1 1 17 30 114 181 169 281 556 846 1176 1072 504 53 0 0 0 64 156 181 155 246 218 342 403 422 374 322 350 272 472 357 158 177 111 46
23 25 5 9 4 4 4 3 2 2 0 1 30 8 22 79 561 780 1025 1109 809 291 0 0 1 56 85 150 263 324 306 242 213 373 343 221 237 55 0 0 0 0 0 6
18 12 15 11 3 0 2 3 2 1 0 3 3 5 1 0 8 41 212 173 441 1064 533 9 3 31 38 69 145 235 142 222 150 288 267 41 405 297 93 0 0 0 0 0
29 10 6 13 4 0 0 0 3 2 2 2 5 7 4 2 0 4 1 0 0 41 202 574 232 67 19 27 93 205 202 224 51 123 269 43 35 185 150 241 47 0 0 0
24 34 17 16 0 0 1 2 1 4 2 1 1 3 5 5 5 5 2 1 0 0 0 0 0 0 0 23 80 152 236 106 171 166 253 207 11 90 101 140 296 64 0 0
18 14 6 11 0 0 0 0 1 4 2 1 1 2 2 4 5 3 3 2 0 2 0 0 0 0 0 8 88 161 199 111 233 269 339 319 126 1 53 61 100 274 143 0
4 0 6 0 0 0 0 0 2 1 1 2 1 0 1 3 4 6 6 4 4 6 3 1 0 0 0 0 89 20 36 109 94 286 259 303 255 129 1 0 7 37 255 67
0 0 0 0 0 0 0 0 0 0 0 0 0 1 1 2 5 5 5 3 2 2 6 5 2 0 0 0 0 15 41 54 31 44 121 231 294 337 286 85 9 1 40 29
0 0 0 0 0 0 0 0 0 0 0 0 0 1 2 4 2 2 4 5 4 1 4 4 1 1 0 0 0 19 27 79 89 65 126 155 297 314 344 364 240 115 111 39
0 0 0 0 0 0 0 0 0 0 0 0 0 0 2 1 1 1 2 10 9 7 4 0 1 2 1 1 0 4 23 32 69 141 248 270 353 492 497 253 459 446 348 193
1 0 0 0 0 0 0 0 0 0 0 0 1 2 2 2 1 1 2 0 9 3 1 1 2 0 0 0 1 2 5 4 3 5 3 0 6 21 46 85 82 159 289 381
12 1 0 0 0 0 0 0 0 0 0 0 1 1 2 1 1 6 6 6 6 1 0 1 0 0 0 0 0 0 3 3 5 7 7 7 8 5 6 6 7 6 4 1
21 6 0 0 0 0 0 0 0 0 0 0 1 2 2 2 1 1 5 3 3 1 1 0 0 0 0 0 0 0 1 3 3 3 4 6 7 8 8 8 8 8 8 8
23 10 5 0 0 0 0 0 0 0 0 0 0 0 0 1 3 1 1 0 0 0 0 0 0 0 0 0 0 0 0 1 1 1 1 1 2 3 4 4 3 4 4 3
35 16 8 0 0 0 0 0 0 0 0 0 0 0 0 0 0 1 0 0 0 0 0 0 0 0 0 0 0 0 0 0 0 0 0 2 2 0 0 0 0 0 0 0
34 23 4 6 0 0 0 0 0 0 0 0 0 0 0 0 0 0 0 0 0 0 0 0 0 0 0 0 0 0 0 0 0 0 0 0 0 0 0 0 0 0 0 0
69 25 7 0 0 0 0 0 0 0 0 0 0 0 0 0 0 0 0 0 0 0 0 0 0 0 0 0 0 0 0 0 0 0 0 0 0 0 0 0 0 0 0 0
CIN
-4 -10 -15 -27 -1 -3 -3 -4 -13 -27 -3 -0 -0 -0 -0 -0 -0 -0 -21 -64 -56 -47 -47 -54 -61 -76 -97 -125 -134 -135 -146 -138 -100 -65 -62 -77 -110 -133 -122 -1 -1 -58 -18 -6
-4 -4 -13 -79 -36 -0 -5 -2 -4 -0 -0 -0 -0 -0 -0 -0 -0 -0 -0 -40 -37 -40 -50 -61 -66 -86 -124 -198 -0 -0 -273 -161 -128 -128 -96 -54 -36 -49 -1 -2 -6 -4 -1 -2
-1 -4 -6 -47 -71 -9 -9 -0 -3 -0 -0 -0 -0 -0 -0 -0 -0 -0 -0 -22 -28 -1 -22 -50 -67 -105 -157 -0 -39 -199 -152 -113 -99 -123 -101 -75 -85 -68 -2 -14 -3 -1 -1 -1
-1 -2 -0 -41 -87 -38 -27 -16 -0 -0 -0 -0 -0 -0 -0 -0 -0 -0 -0 -16 -48 -1 -9 -34 -69 -147 -0 -197 -171 -126 -125 -84 -67 -151 -190 -188 -1 -1 -53 -33 -2 -6 -1 -0
-1 -2 -0 -0 -0 -0 -4 -2 -5 -0 -0 -0 -0 -0 -0 -0 -0 -0 -0 -6 -0 -0 -5 -40 -70 -11 -211 -142 -108 -89 -79 -30 -123 -250 -45 -108 -1 -104 -34 -15 -13 -2 -1 -1
-6 -2 -1 -5 -1 -5 -12 -2 -0 -0 -0 -0 -0 -0 -0 -0 -6 -0 -58 -2 -5 -6 -16 -29 -88 -0 -155 -95 -56 -48 -14 -52 -170 -246 -3 -3 -2 -1 -37 -8 -12 -5 -1 -2
-0 -0 -0 -1 -1 -5 -0 -5 -0 -0 -9 -0 -0 -0 -0 -0 -16 -10 -1 -1 -3 -14 -23 -33 -102 -166 -87 -36 -21 -2 -30 -83 -103 -126 -160 -30 -13 -2 -2 -2 -2 -1 -0 -3
-0 -0 -1 -0 -0 -0 -4 -1 -0 -1 -2 -4 -91 -0 -0 -0 -0 -2 -1 -4 -1 -18 -24 -18 -96 -58 -66 -7 -1 -56 -108 -63 -34 -14 -36 -48 -5 -8 -1 -1 -1 -1 -0 -1
-0 -0 -0 -0 -0 -0 -0 -0 -0 -0 -1 -0 -59 -61 -0 -0 -68 -3 -1 -1 -1 -11 -16 -25 -74 -128 -12 -1 -3 -16 -69 -20 -5 -2 -8 -2 -3 -1 -1 -0 -1 -0 -0 -1
-0 -0 -0 -0 -0 -0 -0 -0 -0 -0 -0 -2 -14 -32 -71 -41 -20 -1 -0 -1 -1 -16 -55 -99 -0 -76 -6 -2 -7 -7 -12 -7 -2 -0 -1 -1 -1 -1 -1 -1 -1 -1 -8 -4
-0 -0 -0 -0 -0 -0 -0 -0 -0 -0 -0 -0 -46 -20 -7 -4 -0 -1 -0 -2 -1 -80 -5 -0 -28 -36 -10 -9 -8 -5 -2 -7 -1 -10 -2 -1 -2 -22 -1 -2 -26 -1 -5 -3
-0 -0 -0 -0 -0 -0 -0 -0 -0 -0 -0 -0 -120 -97 -111 -82 -1 -9 -0 -2 -2 -4 -0 -0 -59 -40 -22 -16 -7 -3 -1 -9 -5 -1 -1 -1 -2 -38 -0 -0 -0 -0 -0 -7
-0 -0 -0 -0 -0 -0 -0 -0 -0 -0 -0 -0 -0 -0 -0 -0 -3 -141 -70 -101 -64 -2 -1 -1 -2 -70 -29 -21 -17 -13 -22 -9 -8 -3 -1 -2 -0 -2 -15 -0 -0 -0 -0 -0
-2 -0 -0 -0 -0 -0 -0 -0 -0 -0 -0 -0 -0 -0 -0 -0 -0 -0 -0 -0 -0 -122 -37 -2 -1 -23 -2 -9 -22 -15 -7 -9 -32 -11 -1 -5 -4 -2 -1 -5 -12 -0 -0 -0
-3 -0 -0 -1 -1 -0 -0 -2 -0 -0 -0 -0 -0 -0 -0 -0 -0 -0 -0 -0 -0 -0 -0 -0 -0 -0 -0 -2 -27 -24 -4 -29 -13 -15 -2 -4 -2 -9 -3 -3 -2 -5 -0 -0
-2 -2 -2 -4 -0 -0 -1 -1 -1 -0 -0 -0 -0 -0 -0 -0 -0 -0 -0 -0 -0 -0 -0 -0 -0 -0 -0 -17 -26 -19 -19 -63 -15 -7 -3 -2 -19 -1 -38 -30 -15 -1 -4 -0
-1 -0 -21 -6 -0 -0 -0 -0 -0 -0 -0 -0 -0 -0 -0 -0 -0 -0 -0 -0 -0 -0 -0 -0 -0 -0 -0 -0 -47 -67 -49 -55 -48 -2 -2 -1 -4 -39 -4 -0 -125 -83 -8 -81
-0 -0 -0 -0 -0 -0 -0 -0 -0 -0 -0 -0 -0 -0 -0 -0 -0 -0 -0 -0 -0 -0 -0 -0 -0 -0 -0 -0 -0 -47 -48 -37 -55 -59 -29 -7 -4 -5 -15 -75 -35 -1 -117 -73
-0 -0 -0 -0 -0 -0 -0 -0 -0 -0 -0 -0 -0 -0 -0 -0 -0 -0 -0 -0 -0 -0 -0 -0 -0 -0 -0 -0 -0 -110 -74 -24 -16 -29 -16 -32 -18 -6 -9 -14 -34 -75 -85 -144
-0 -0 -0 -0 -0 -0 -0 -0 -0 -0 -0 -0 -1 -0 -0 -0 -0 -0 -0 -0 -0 -0 -0 -0 -0 -0 -0 -0 -0 -24 -133 -109 -71 -19 -1 -4 -2 -10 -4 -45 -12 -5 -13 -46
-7 -0 -0 -0 -0 -0 -0 -0 -0 -0 -1 -0 -0 -0 -0 -0 -0 -0 -0 -0 -0 -0 -0 -0 -0 -0 -0 -0 -1 -0 -0 -0 -0 -0 -0 -0 -139 -179 -129 -82 -88 -51 -30 -8
-0 -5 -0 -0 -0 -0 -0 -0 -0 -0 -0 -0 -0 -0 -0 -0 -0 -0 -0 -0 -0 -0 -0 -0 -0 -0 -0 -0 -0 -0 -0 -0 -0 -0 -0 -0 -0 -0 -0 -0 -0 -0 -0 -0
-1 -9 -0 -0 -0 -0 -0 -0 -0 -0 -0 -0 -0 -0 -0 -0 -0 -0 -0 -0 -0 -0 -0 -0 -0 -0 -0 -0 -0 -0 -0 -0 -0 -0 -0 -0 -0 -0 -0 -0 -0 -0 -0 -0
-10 -10 -18 -0 -0 -0 -0 -0 -0 -0 -0 -0 -0 -1 -0 -0 -0 -0 -0 -0 -0 -0 -0 -0 -0 -0 -0 -0 -0 -0 -0 -0 -0 -0 -0 -0 -0 -0 -0 -0 -0 -0 -0 -0
-10 -9 -19 -3 -0 -0 -0 -0 -0 -0 -0 -0 -0 -0 -0 -0 -0 -0 -0 -0 -0 -0 -0 -0 -0 -0 -0 -0 -0 -0 -0 -0 -0 -0 -0 -0 -0 -0 -0 -0 -0 -0 -0 -0
-12 -11 -6 -10 -1 -0 -0 -0 -0 -0 -0 -0 -0 -0 -0 -0 -0 -0 -0 -0 -0 -0 -0 -0 -0 -0 -0 -0 -0 -0 -0 -0 -0 -0 -0 -0 -0 -0 -0 -0 -0 -0 -0 -0
-3 -4 -10 -0 -0 -0 -0 -0 -0 -0 -0 -0 -0 -0 -0 -0 -0 -0 -0 -0 -0 -0 -0 -0 -0 -0 -0 -0 -0 -0 -0 -0 -0 -0 -0 -0 -0 -0 -0 -0 -0 -0 -0 -0
Wind_Speed
14 39 36 36 35 34 37 38 43 43 44 42 36 30 28 25 22 18 13 16 16 12 8 2 7 9 10 7 7 8 8 8 9 9 9 9 9 9 9 8 8 8 9 10
16 22 26 38 39 38 40 41 43 46 49 43 39 35 33 30 26 22 16 17 19 13 5 5 9 10 6 5 7 8 9 10 11 12 11 10 10 11 11 10 9 9 9 11
14 14 23 34 36 38 41 41 43 48 46 40 40 38 35 30 27 24 21 18 21 12 4 7 10 7 5 6 8 9 9 10 12 12 12 12 12 13 13 12 10 9 10 11
11 16 23 28 25 27 30 35 41 45 43 42 41 37 35 32 31 28 24 22 22 11 6 9 8 6 6 8 8 9 9 11 12 13 12 11 12 13 14 11 10 8 10 12
12 12 15 26 31 33 31 32 35 40 40 38 36 35 35 32 32 31 29 26 23 7 10 10 8 6 8 8 8 8 9 11 12 12 11 11 12 13 12 12 8 9 11 12
12 10 10 11 14 16 22 31 29 36 37 34 32 37 29 24 24 25 26 22 17 8 9 9 7 8 8 9 8 7 9 12 11 12 13 12 13 12 10 10 7 10 10 13
14 11 8 14 9 23 29 24 19 21 23 30 34 32 28 23 20 22 23 20 14 8 9 9 7 8 9 8 7 7 10 12 12 13 13 13 13 10 11 12 6 10 11 11
7 8 3 24 28 33 30 24 24 24 24 28 30 31 31 29 26 23 24 21 12 8 8 8 7 11 11 8 6 9 12 14 14 14 15 13 13 13 20 25 24 21 21 13
13 8 2 5 19 38 41 33 30 28 26 28 31 31 31 29 26 24 24 21 11 8 9 8 8 11 11 8 10 13 14 14 15 15 13 11 15 19 23 25 25 24 22 10
3 6 3 3 13 9 26 31 28 28 28 29 28 27 28 25 24 24 21 17 13 7 9 9 9 13 12 10 12 15 13 14 14 14 13 13 16 21 18 22 22 22 21 13
4 15 9 9 10 8 8 15 19 21 23 22 22 19 19 22 20 20 19 16 9 6 8 10 10 13 10 13 15 15 15 13 13 13 14 21 12 12 13 13 17 19 19 18
4 17 11 8 9 9 6 9 13 15 18 21 15 16 17 18 15 17 16 16 9 6 9 10 12 12 9 13 16 15 15 13 12 15 20 20 14 8 8 8 11 10 10 11
17 9 10 6 6 6 5 6 9 13 14 18 12 12 14 12 11 10 12 11 7 10 7 7 11 9 13 14 16 17 18 10 14 22 14 18 22 15 9 8 6 7 8 9
11 11 5 4 5 6 7 8 7 9 9 9 12 8 8 7 8 7 9 7 5 8 13 12 6 8 7 15 18 18 10 2 24 23 22 21 22 18 7 5 5 6 6 8
3 6 8 6 7 8 7 8 9 6 6 8 7 5 4 5 5 6 5 5 1 9 11 10 8 11 16 5 11 8 4 9 22 19 22 18 22 23 21 9 6 4 4 9
7 11 7 7 6 7 7 7 6 6 6 6 7 5 5 3 2 3 3 3 3 10 12 11 9 11 13 17 12 12 13 11 18 18 19 24 23 24 23 21 19 18 19 16
6 7 8 8 7 4 6 5 6 4 8 6 5 5 5 5 4 3 2 2 0 1 8 9 10 11 12 14 20 19 18 13 18 18 19 24 24 23 23 23 20 19 18 12
5 5 5 4 7 6 6 5 5 6 7 6 6 5 4 6 6 7 7 6 3 2 6 8 10 12 12 14 17 18 20 15 18 20 17 21 22 23 23 23 23 16 9 12
7 7 6 3 6 5 6 6 6 5 6 6 7 6 5 5 6 7 7 6 6 7 7 8 10 11 12 13 15 14 17 19 18 18 16 13 17 18 19 21 21 19 4 8
10 7 6 5 2 5 7 8 7 6 7 6 6 6 8 9 9 8 8 7 9 12 13 10 11 11 11 11 11 11 10 11 15 16 17 16 15 15 15 15 17 16 14 13
11 11 8 6 7 5 5 6 6 8 8 6 6 6 6 7 9 9 11 9 11 7 8 13 12 13 10 8 8 8 8 9 10 10 11 11 11 11 12 12 12 13 14 15
12 11 10 9 8 9 9 8 9 7 6 7 8 6 5 7 7 8 8 7 8 8 8 11 12 11 12 8 7 7 5 5 7 8 8 8 9 10 11 11 12 13 13 14
11 11 11 10 9 8 9 10 10 10 8 9 10 7 6 7 7 7 6 8 7 6 7 8 9 8 8 7 7 7 7 7 7 8 8 8 9 9 10 11 12 13 14 14
10 10 11 10 10 10 10 10 10 10 10 10 10 10 8 7 8 8 7 7 7 8 7 7 8 7 7 7 7 7 7 7 8 9 9 9 10 10 10 11 12 13 14 15
8 9 9 9 10 10 9 9 9 10 10 10 10 11 11 10 8 7 6 6 6 7 8 10 10 10 9 8 7 8 8 8 8 9 10 9 10 11 12 12 13 14 15 16
6 8 9 10 10 11 10 10 9 9 9 9 10 10 10 10 9 9 9 9 9 9 10 10 10 11 11 11 11 10 10 10 10 10 11 12 13 13 14 15 16 16 18 19
5 7 7 8 9 10 10 10 9 9 9 8 8 9 10 10 9 9 9 10 10 11 11 12 12 12 12 11 11 11 12 12 12 12 12 13 14 14 15 16 18 18 19 20
Wind_Direction
220 263 273 268 256 258 247 244 237 231 231 230 238 247 254 261 264 266 268 233 228 230 232 145 100 92 85 73 56 44 41 41 38 48 52 59 63 63 58 57 56 43 26 22
221 217 217 248 249 252 244 241 236 233 228 233 241 248 250 251 250 253 261 238 226 229 221 120 105 98 86 64 49 38 51 46 53 60 65 67 70 76 78 71 58 44 13 15
204 190 215 243 247 245 242 239 232 225 228 237 235 239 243 245 247 244 250 240 226 229 198 122 111 103 89 66 59 56 52 52 56 64 69 76 80 91 92 78 63 44 18 357
165 193 215 235 263 263 254 243 233 228 231 234 236 242 243 240 237 240 242 232 224 227 144 125 116 110 85 76 69 60 50 52 54 68 69 69 78 89 88 70 64 28 16 355
142 153 200 241 257 251 243 236 232 227 230 232 236 238 236 236 233 234 232 226 222 194 136 128 125 111 94 85 72 59 51 56 60 59 61 67 84 86 76 77 41 38 18 345
147 147 151 115 335 287 263 235 228 226 229 230 226 217 225 230 239 233 225 222 219 188 141 134 126 112 103 88 72 53 52 68 60 65 65 72 86 86 64 68 29 50 2 2
188 188 180 303 23 276 227 221 234 235 233 225 218 222 225 234 239 230 224 215 209 160 145 131 126 114 106 92 69 46 54 67 62 64 72 75 80 68 79 99 31 58 39 320
114 187 154 307 275 241 238 249 238 236 234 223 221 220 222 223 225 226 217 211 203 156 144 129 124 119 110 94 56 59 67 76 68 68 74 71 81 87 130 185 156 131 184 224
66 90 200 220 243 243 236 236 237 233 227 221 218 218 216 218 222 218 213 211 198 171 133 125 123 120 113 94 86 83 75 71 69 72 52 49 90 117 196 187 179 171 179 148
109 97 234 106 298 280 218 225 229 228 221 217 215 215 214 215 217 214 210 205 205 154 124 123 124 120 113 100 95 99 77 69 61 58 48 75 111 193 219 203 199 197 194 244
208 292 280 300 317 314 237 222 222 226 221 218 218 218 216 215 218 211 203 202 190 168 125 122 125 120 111 109 107 102 91 73 57 45 56 151 236 237 239 239 221 211 207 205
260 315 4 277 281 296 275 235 230 217 214 210 215 219 217 214 217 209 205 207 193 167 111 125 125 116 109 110 109 104 98 84 59 64 123 177 205 262 285 254 232 255 258 258
305 285 289 274 268 278 265 223 227 213 208 205 218 215 211 211 211 206 204 202 204 219 190 130 120 116 110 109 110 110 110 70 78 159 216 194 181 211 237 250 312 320 293 289
303 306 230 274 269 260 251 242 230 207 212 214 213 210 214 208 210 213 212 203 212 221 216 215 203 222 107 111 114 111 84 323 168 167 171 173 179 199 261 309 322 336 294 235
276 155 298 266 274 238 231 244 228 222 216 215 223 220 225 216 221 231 233 202 240 218 214 211 216 229 224 231 110 96 264 242 199 198 178 185 169 173 180 221 16 347 276 220
293 322 300 302 296 275 261 264 234 234 225 226 225 240 241 237 250 254 265 255 211 218 219 221 224 236 237 227 236 238 241 248 222 215 206 171 166 165 169 177 188 192 191 200
295 314 316 323 304 279 303 276 247 251 242 248 253 264 251 245 254 293 351 327 71 252 234 236 237 244 244 240 226 228 233 245 234 229 217 186 175 173 173 180 193 196 201 129
291 296 301 299 325 314 318 304 285 276 262 263 267 280 296 269 271 277 299 297 259 336 255 252 254 252 254 245 240 238 232 242 238 235 240 221 208 193 181 178 179 95 41 77
298 311 310 297 325 331 341 325 303 290 308 288 279 282 284 305 310 300 316 303 264 251 281 274 265 265 264 259 251 252 246 240 242 245 251 260 247 242 239 221 218 225 338 44
308 299 304 310 298 332 347 350 341 327 330 329 308 299 294 291 292 306 318 324 302 287 269 285 270 276 273 274 270 265 267 261 253 253 254 256 262 263 267 269 266 270 278 283
309 313 300 300 327 317 333 340 348 1 357 336 330 338 321 310 312 317 329 322 299 295 290 260 275 266 275 290 288 283 280 281 278 277 278 278 274 283 288 292 294 293 291 291
330 309 310 310 318 339 343 342 350 346 345 353 353 326 308 337 339 352 340 327 292 284 273 260 261 272 259 300 322 336 309 312 308 297 297 300 299 302 307 310 308 307 308 310
320 325 306 303 308 315 328 344 350 351 346 355 2 351 341 346 335 338 341 330 328 312 305 297 291 287 286 294 321 351 2 336 324 328 329 332 333 330 330 327 327 323 322 321
337 338 337 319 306 306 316 322 337 347 353 353 350 349 345 346 352 342 350 351 354 2 352 347 352 348 343 338 337 333 338 348 347 341 333 333 336 343 347 350 349 342 339 335
42 11 350 342 351 326 321 323 325 334 348 349 351 357 4 2 354 344 331 331 343 348 357 7 12 11 10 3 359 2 355 340 331 345 342 342 344 339 335 341 346 339 339 336
48 32 3 319 329 350 325 307 313 312 326 347 352 351 354 359 1 1 4 1 2 4 4 1 7 14 18 20 18 11 4 359 354 348 340 339 340 342 340 337 342 331 329 329
348 342 1 358 359 23 336 311 307 305 312 319 338 352 3 9 1 360 2 7 12 15 16 19 21 21 22 20 17 17 21 13 2 2 0 356 351 349 344 345 349 347 342 338